Погода в Городце

Россия / Тверская область     57°26′16″N   33°04′50″E
темп.,
°C
ветер,
м/с
пор.,
м/с
влажн.,
%
обл.,
%
осадки,
мм/ч
давл.,
гПа
погр.,
м
21 апреля, ср
ср2100:00+3вюв3690100 0.1 1015769
03:00+3св2392100 0.3 1012328
06:00+3с2597100 0.9 1008509
09:00+2ссз1399100 2.4 1006327
12:00+3зсз2598100 0.6 1004483
15:00+4з3791100 0.7 1005659
18:00+6зюз377544 0.1 1005863
21:00+4ю279075 0.1 1006209
22 апреля, чт
чт2200:00+2ю399492 0.1 1006190
03:00+3ю41290100 0.1 1007337
06:00+3ю41294100 0.4 1007387
09:00+8ююз487865 0.5 1008486
12:00+12юз4651100 0.0 10081643
15:00+14ююз463798 0.0 10082385
18:00+14ю364041 0.0 10071396
21:00+9ююв41177100 0.1 1008417
23 апреля, пт
пт2300:00+7ююв4109495 0.7 1007372
03:00+6зюз4794100 3.7 1007846
06:00+5ю3891100 1.7 1008360
09:00+7ююз4971100 1.8 10091302
12:00+7ююз5961100 0.1 10101730
15:00+9ююз5845100 0.1 10102136
18:00+8юз3650100 0.0 10101809
21:00+4юз2271100 0.0 101128
24 апреля, сб
сб2400:00+3ююз2475100 0.0 101195
03:00+2зюз1378100 0.0 101091
06:00+2зсз2485100 0.0 1009156
09:00+3сз2373100 0.0 1008599
12:00+5зсз3359100 0.0 10071271
15:00+6зсз3450100 0.1 10061476
18:00+6сз3451100 0.1 10061454
21:00+2зсз2273100 0.2 100627
25 апреля, вс
вс2500:00+2з2782100 0.1 1005233
03:000з41085100 0.1 1004363
06:000зюз41095100 0.0 1004410
09:00+1зюз5990100 0.1 1003637
12:00+3зюз5776100 0.1 1003998
15:00+5з5760100 0.6 10031451
18:00+5з4864100 0.6 10031394
21:00+2з3784100 0.7 1004496